SCP
0 0 0 0 0 0 0 0 0 0 0 0 0 0 0 0 0 0 0 0 0 0 0 0 0 0 0 0 0 0 0 1 1 1 1 0 0 0 0 0 0 0 0 0
0 0 0 0 0 0 0 0 0 0 0 0 0 0 0 0 0 0 0 0 0 0 0 0 0 0 0 0 1 1 1 1 1 1 1 1 1 0 0 0 0 0 0 0
0 0 0 0 0 0 0 0 0 0 0 0 0 0 0 0 0 0 0 0 0 0 0 0 0 0 0 0 1 1 1 1 1 1 1 1 1 1 1 1 0 0 0 0
0 0 0 0 0 0 0 0 0 0 0 0 0 0 0 0 0 0 0 0 0 0 0 0 0 0 0 0 0 1 1 1 1 1 1 1 1 1 1 1 0 0 0 0
0 0 0 0 0 0 0 0 0 0 0 0 0 0 0 0 0 0 0 0 0 0 0 0 0 0 0 0 0 1 1 1 1 1 1 1 1 1 1 1 1 0 0 0
-0 0 0 0 0 0 0 0 0 0 0 0 0 0 0 0 0 0 0 0 0 1 0 0 0 0 0 1 1 1 1 1 1 1 1 1 1 1 1 1 1 0 0 0
0 0 0 0 0 0 0 0 0 0 0 0 0 0 0 0 0 0 0 0 0 1 1 1 0 1 1 1 1 1 1 1 1 1 1 1 1 1 1 1 1 0 0 0
0 0 0 0 0 0 0 0 0 0 0 0 0 0 0 0 0 0 0 0 0 1 1 1 1 1 1 1 1 1 1 1 1 1 1 1 1 1 1 1 1 1 0 0
0 0 0 0 0 0 0 0 0 0 0 0 0 0 0 0 0 0 0 0 0 0 1 1 1 1 1 1 1 1 1 1 1 1 1 1 1 1 1 1 1 1 1 1
0 0 0 0 0 0 0 0 0 0 0 0 0 0 0 0 0 0 0 0 0 0 1 1 1 1 1 1 1 1 1 1 1 1 1 1 1 1 1 1 1 1 1 1
0 0 0 0 0 0 0 0 0 0 0 0 0 0 0 0 0 0 0 0 0 1 1 1 1 1 1 1 1 1 1 1 1 1 1 1 1 1 1 1 1 1 1 1
0 0 0 0 0 0 0 0 0 0 0 0 0 0 0 0 0 0 0 0 1 1 1 0 0 0 1 1 1 1 1 1 1 1 1 1 1 1 1 1 1 1 1 1
0 0 0 0 0 0 0 0 0 0 0 0 0 0 0 0 0 0 0 0 1 1 1 1 1 1 1 1 1 1 1 1 1 1 1 1 1 1 1 1 1 1 1 0
0 0 0 0 0 0 0 0 0 0 0 0 0 0 0 0 0 0 0 0 1 1 1 1 1 1 1 1 1 1 1 1 1 1 1 1 1 1 1 1 1 1 0 0
0 0 0 0 0 0 0 0 0 0 0 0 0 0 0 0 0 0 0 0 0 1 1 1 1 1 1 1 1 1 1 1 1 1 1 1 1 1 1 1 1 1 1 0
0 0 0 0 0 0 0 0 0 0 0 0 0 0 0 0 0 0 0 0 0 1 1 1 1 1 1 1 1 1 1 1 1 1 1 1 1 1 1 1 1 1 1 0
0 0 0 0 0 0 0 0 0 0 0 0 0 0 0 0 0 0 0 0 0 1 1 1 1 1 1 1 1 1 1 1 1 1 1 1 1 1 1 1 1 1 1 1
0 0 0 0 0 0 0 0 0 0 0 0 0 0 0 0 0 0 0 0 0 1 1 1 1 1 1 1 1 1 1 1 1 1 1 1 1 1 1 1 1 1 1 1
0 0 0 0 0 0 0 0 0 0 0 0 0 0 0 0 0 0 0 0 0 1 1 1 1 1 1 1 1 1 1 1 1 1 1 1 1 1 1 1 1 1 1 0
0 0 0 0 0 0 0 0 0 0 0 0 0 0 0 0 0 0 0 0 1 1 1 1 1 1 1 1 1 1 1 1 1 1 1 1 1 1 1 1 1 1 0 0
0 0 0 0 0 0 0 0 0 0 0 0 0 0 0 0 0 0 0 1 1 1 1 1 1 1 1 1 1 1 1 1 1 1 1 1 1 1 1 1 0 0 0 0
0 0 0 0 0 0 0 0 0 0 0 0 0 0 0 0 0 1 1 1 1 1 1 1 1 1 1 1 1 1 1 1 1 1 1 1 1 1 0 0 0 0 0 0
0 0 0 0 0 0 0 0 0 0 0 0 0 0 0 0 1 0 0 1 1 1 1 1 1 1 1 1 1 1 1 1 1 1 1 1 1 0 0 0 0 0 0 0
0 0 0 0 0 0 0 0 0 0 0 0 0 0 0 0 0 0 0 1 1 1 1 1 1 1 1 1 1 1 1 1 1 1 1 1 0 0 0 0 0 0 0 0
0 0 0 0 0 0 0 0 0 0 0 0 0 0 0 0 0 0 1 1 1 1 1 1 1 1 1 1 1 1 1 1 1 1 0 0 0 0 0 0 0 0 0 0
0 0 0 0 0 0 0 0 0 0 0 0 0 0 0 0 0 0 1 1 1 1 1 1 1 1 1 1 1 1 1 1 1 0 0 0 0 0 0 0 0 0 0 0
Wind_Speed
8 10 9 8 8 8 7 8 8 6 4 7 8 6 5 5 6 7 7 8 9 8 7 7 9 9 8 8 8 8 7 7 5 4 4 4 3 3 2 1 1 1 1 1
9 11 6 5 6 9 9 10 9 6 5 7 7 8 5 5 6 5 6 7 7 7 7 7 8 9 10 10 9 9 8 8 7 5 4 3 3 2 2 1 1 1 1 2
11 3 5 7 8 9 10 10 8 6 5 8 8 10 8 6 5 4 5 6 7 7 8 8 9 10 10 10 10 8 9 8 8 7 5 4 3 3 3 3 2 1 1 2
9 5 6 9 9 10 9 7 8 8 9 8 8 8 7 7 6 6 5 6 6 7 7 7 7 8 9 9 9 9 9 9 8 8 6 6 4 4 3 2 1 2 2 2
7 7 9 10 8 8 6 4 8 9 10 10 9 9 6 7 6 6 6 5 4 5 5 6 6 6 6 8 8 9 9 9 8 8 7 7 5 4 3 2 2 2 2 2
5 5 6 6 6 7 5 6 7 10 11 13 10 10 6 5 5 5 5 5 4 4 4 5 5 5 5 6 7 8 9 8 9 9 8 7 6 4 3 3 2 3 2 2
9 9 7 6 8 9 10 9 8 10 11 9 7 9 5 1 3 4 3 4 4 4 4 5 5 6 5 5 6 8 9 9 9 9 9 8 7 6 5 4 3 3 2 2
9 9 8 7 9 8 11 12 10 8 8 7 8 8 3 1 1 2 3 4 4 4 4 4 5 5 5 5 6 7 8 8 8 8 8 7 7 5 4 4 3 3 2 1
6 5 5 5 7 10 11 12 11 10 9 9 7 5 5 3 3 3 3 4 4 3 3 3 4 4 5 5 5 7 8 8 8 8 7 6 6 4 3 4 4 2 1 1
4 5 6 6 7 8 9 8 8 11 10 11 9 9 6 6 5 3 3 3 2 2 3 3 3 3 4 4 5 5 6 7 8 8 6 5 5 5 4 4 3 2 2 1
5 6 6 8 9 8 9 11 10 10 10 10 9 4 2 3 4 3 3 2 2 2 2 2 2 3 3 4 5 5 6 6 6 7 7 6 5 5 4 4 3 2 2 2
3 6 7 8 5 6 9 10 11 10 10 10 10 3 4 2 2 2 2 2 2 1 2 3 3 3 4 4 4 5 5 6 6 6 7 6 6 5 4 4 3 3 2 2
3 5 7 8 10 9 9 9 11 11 9 10 11 4 6 3 1 2 2 2 2 2 2 3 3 3 3 3 3 4 4 5 5 6 6 6 6 5 4 3 3 2 2 2
5 6 9 8 4 4 8 10 11 12 11 10 11 7 4 2 2 2 2 2 2 2 2 2 3 3 3 3 3 3 4 4 5 5 6 6 5 5 4 4 3 3 2 2
5 7 8 8 8 8 9 11 11 13 13 12 10 9 5 3 2 2 2 2 2 2 2 3 3 3 3 3 2 3 3 4 5 5 5 5 5 4 4 4 3 3 3 3
4 6 7 8 8 8 10 11 12 12 11 12 11 9 4 3 2 2 2 2 2 2 2 2 3 3 3 3 3 3 3 4 4 5 5 5 4 4 4 4 3 3 2 2
5 6 7 8 7 9 11 10 11 10 9 10 10 7 3 3 3 3 2 2 2 2 2 2 2 3 3 3 3 3 3 4 5 4 4 5 4 4 4 3 3 3 2 2
6 7 6 6 7 10 1 0 4 7 7 7 7 5 4 4 3 2 2 2 1 1 1 2 2 3 3 3 4 4 4 4 4 4 4 4 4 4 4 3 3 2 2 2
7 7 7 6 9 8 4 3 4 6 5 4 5 4 3 3 3 3 0 1 1 1 1 2 2 3 3 4 4 4 4 4 4 4 4 3 3 4 4 3 3 2 2 2
7 8 8 8 8 8 1 2 2 5 6 1 3 3 3 3 6 1 1 2 2 1 1 1 2 3 3 4 4 4 4 5 4 4 3 3 3 3 3 3 2 2 2 2
8 8 10 10 9 6 3 2 3 7 1 4 3 3 4 4 4 3 2 2 2 1 1 2 2 3 3 4 4 5 4 4 4 4 3 3 2 2 2 2 2 2 2 2
7 7 8 8 9 5 3 1 3 4 5 4 4 4 4 4 4 3 2 2 1 1 1 2 2 2 3 4 5 5 4 3 3 4 4 3 2 2 2 2 2 2 2 2
6 5 4 4 3 3 2 3 4 5 5 5 5 5 5 5 5 4 3 2 2 2 2 2 3 3 2 3 3 4 4 4 4 4 4 3 2 1 1 2 2 2 3 2
4 3 5 5 5 4 4 5 4 4 5 5 5 6 5 5 5 3 2 1 2 2 3 3 3 3 3 3 3 3 4 4 4 3 3 3 2 2 1 1 2 2 1 2
5 4 6 7 6 5 4 4 5 5 6 6 5 5 4 4 4 3 2 1 2 2 2 3 3 3 3 3 3 3 4 4 4 3 3 3 3 2 1 1 1 1 1 1
6 7 7 6 4 6 5 6 7 7 6 6 6 5 4 3 2 2 2 1 1 2 3 3 3 3 4 4 3 3 4 4 4 3 3 3 2 2 2 2 1 2 1 2
Wind_Direction
196 217 218 219 231 258 256 246 234 224 204 241 241 239 222 201 215 214 206 199 197 200 204 201 194 191 186 184 185 186 186 179 183 184 188 185 186 191 192 189 173 205 232 220
203 219 221 223 224 237 241 238 232 213 211 248 242 242 222 216 217 221 215 207 205 198 198 194 193 192 191 189 190 190 191 186 189 186 191 191 195 197 182 187 163 200 215 231
223 189 193 216 215 226 233 241 239 231 218 227 244 231 212 202 206 219 223 215 208 203 198 194 193 194 194 192 193 194 192 188 191 187 186 183 185 194 184 187 183 187 207 211
226 209 209 219 219 230 231 236 247 237 234 223 227 250 200 196 201 207 215 211 211 208 201 196 191 192 196 196 193 192 189 188 187 187 190 192 197 201 190 194 170 175 197 220
200 201 216 225 223 230 247 243 241 238 242 251 226 254 225 181 215 216 207 210 212 212 204 195 187 187 190 193 190 186 185 186 186 192 191 198 206 205 193 187 177 208 195 217
218 202 233 235 228 222 226 220 223 231 238 240 233 247 244 201 228 232 202 203 203 198 191 187 177 176 177 179 185 181 181 183 183 190 193 199 201 202 204 202 198 210 204 207
209 205 206 226 221 199 219 224 218 216 221 232 214 237 248 262 262 260 222 194 191 186 178 174 175 176 172 174 182 180 180 183 185 187 191 195 198 199 202 215 208 230 231 222
216 205 192 210 230 223 217 232 241 244 240 231 202 232 228 149 274 255 206 181 176 180 168 164 171 176 172 172 180 183 181 183 183 184 188 192 197 203 201 214 232 233 254 267
240 213 165 206 230 239 219 228 251 262 263 255 223 228 206 187 199 193 189 179 173 171 163 162 164 170 172 172 176 179 176 175 178 180 183 189 191 200 199 205 219 228 239 248
266 247 203 193 211 217 246 234 231 242 248 248 238 233 227 197 211 196 180 177 162 155 166 165 162 165 166 167 170 175 174 176 178 176 181 182 182 186 195 204 199 220 229 236
264 248 213 204 217 218 210 219 234 244 252 254 249 235 104 179 195 191 175 157 152 157 163 168 165 157 153 156 163 173 175 176 178 176 176 177 179 181 191 198 197 197 214 215
241 262 246 228 220 249 236 234 230 237 239 250 261 242 104 135 185 189 162 148 143 140 158 156 154 146 150 154 163 169 174 178 179 175 172 172 173 176 187 184 183 185 201 217
218 242 242 215 197 206 224 230 234 241 244 244 249 229 129 144 175 195 186 156 141 142 163 159 148 146 150 154 163 167 172 175 179 172 168 166 171 173 182 181 177 186 197 201
252 248 258 266 280 250 233 231 233 238 240 240 245 250 223 209 220 215 220 207 175 160 165 171 161 157 149 151 163 167 164 162 165 167 165 163 169 177 181 182 177 188 194 196
245 248 254 277 285 267 255 245 239 239 249 256 253 257 261 256 252 239 226 203 194 188 188 182 186 172 165 159 157 153 160 158 163 170 167 164 168 175 178 179 180 187 195 195
242 260 255 258 258 257 257 250 244 243 247 253 257 261 264 262 257 239 217 191 200 209 216 209 202 191 186 179 172 158 155 157 164 171 166 161 166 172 172 175 174 179 186 190
225 245 254 251 251 257 244 240 237 236 240 251 257 266 264 248 253 253 242 221 216 215 216 218 218 209 198 185 177 170 167 161 161 164 159 159 167 171 171 172 168 172 175 175
238 243 250 256 251 245 231 23 254 247 244 254 266 275 264 265 265 255 259 260 241 227 223 226 222 203 192 179 177 174 163 158 159 159 158 159 168 170 166 169 169 176 179 180
223 231 245 246 247 250 220 206 249 251 244 268 271 277 281 279 229 209 63 333 297 252 244 237 229 202 180 179 176 170 165 158 161 159 161 167 170 167 165 169 172 175 183 191
199 220 241 241 250 249 196 70 310 259 234 323 283 270 276 264 244 197 20 328 309 269 228 218 203 186 176 180 174 174 172 163 165 167 168 162 171 170 165 166 181 186 198 208
197 210 230 242 246 256 39 5 231 236 355 22 327 303 285 281 310 339 322 292 291 269 209 179 184 182 177 179 177 181 178 175 168 161 153 147 152 158 161 165 178 193 211 215
227 227 223 235 241 241 54 255 266 338 349 324 320 313 305 300 302 305 307 285 234 215 198 177 175 172 170 177 182 181 177 167 150 142 139 139 146 161 146 163 189 196 199 203
237 258 259 249 271 26 345 317 319 313 307 310 307 303 296 292 289 290 282 240 200 196 192 173 166 155 158 172 175 168 155 149 143 141 137 135 140 152 166 183 192 203 205 221
230 250 249 253 258 279 296 301 308 310 302 304 302 297 288 284 285 287 278 223 199 197 190 170 162 157 157 165 157 145 144 149 151 152 146 141 145 167 178 216 224 231 227 232
273 243 245 251 267 278 279 311 325 324 315 309 307 299 288 281 277 276 272 245 227 196 180 165 157 161 161 159 152 146 146 152 161 163 161 162 166 165 186 219 296 270 310 318
250 250 255 269 293 288 302 322 319 311 310 307 303 300 291 269 252 257 261 259 230 191 168 157 159 160 157 158 157 156 156 157 164 174 173 180 185 175 197 199 187 87 79 73